Wind_Speed
25 25 26 27 27 27 27 27 27 28 28 29 30 29 29 30 30 31 32 33 33 34 34 35 36 37 39 40 40 40 41 42 42 43 43 42 43 43
24 24 25 26 26 26 27 27 27 28 28 29 30 30 30 30 30 30 30 32 33 34 33 34 35 36 38 38 39 40 41 42 43 43 44 44 43 43
24 24 25 25 25 25 26 26 27 27 27 27 29 29 29 29 29 30 30 31 33 34 33 33 34 36 37 38 39 40 41 42 43 44 44 44 45 44
24 24 25 25 25 24 24 25 25 26 25 25 26 27 28 29 29 29 30 31 32 33 33 33 33 35 36 37 38 39 41 42 43 44 44 45 45 45
24 24 24 24 24 24 24 24 24 24 24 24 25 26 26 27 28 28 29 30 31 32 33 34 34 34 36 37 38 39 40 41 42 43 44 45 45 45
23 23 23 22 22 22 23 23 23 23 24 24 24 25 25 26 26 27 27 28 29 30 31 32 33 33 34 36 37 37 38 40 41 42 43 44 44 45
21 21 21 21 21 21 21 22 23 23 23 24 23 24 25 25 26 26 27 27 28 29 30 30 32 33 33 34 35 36 37 38 40 41 42 43 43 43
20 20 20 20 20 20 21 22 22 22 22 22 23 24 24 25 26 26 27 27 27 27 28 29 30 31 31 32 32 34 34 35 37 39 40 41 41 41
20 20 20 20 19 20 21 21 21 21 22 22 22 23 24 24 25 25 25 27 27 27 27 27 28 28 29 30 30 31 32 33 34 36 38 40 41 41
21 21 20 20 20 20 20 21 21 21 22 22 23 23 23 23 24 25 25 26 26 26 27 26 27 27 28 29 29 30 31 32 33 35 37 39 40 41
21 21 20 20 20 20 21 21 21 21 22 22 23 23 23 23 24 24 24 24 24 26 27 27 26 27 27 27 28 29 30 31 32 33 35 38 39 40
22 22 21 21 21 21 21 21 20 20 21 21 22 23 22 22 23 23 24 24 23 23 25 26 26 27 27 27 28 29 29 31 32 33 34 36 38 38
22 22 22 21 21 22 22 21 21 21 21 22 22 21 21 21 22 23 24 23 23 23 24 25 25 26 26 26 27 28 29 30 31 32 34 35 35 36
23 22 22 22 23 22 22 22 22 22 22 21 21 20 21 21 21 22 23 24 24 24 24 24 24 24 25 26 26 27 28 29 30 31 32 34 35 35
23 23 23 24 24 23 23 22 22 22 22 22 21 21 21 21 21 22 23 23 23 23 23 24 24 25 25 25 26 27 27 29 30 30 31 32 33 35
26 26 26 26 25 25 24 23 23 23 22 22 22 22 22 22 22 22 21 21 22 22 23 23 24 24 25 25 26 26 26 27 29 29 30 31 31 32
27 26 26 26 25 24 24 24 23 23 23 23 23 22 22 21 21 20 20 20 21 22 22 22 22 22 23 24 24 25 26 27 28 29 29 30 31 32
27 27 26 26 25 24 23 23 22 22 22 22 22 21 20 19 19 19 19 19 20 21 22 22 23 23 23 23 24 24 25 26 26 27 29 30 30 31
28 28 28 27 26 25 24 24 23 23 22 21 21 20 20 19 18 19 19 19 19 20 20 21 21 22 23 23 23 23 24 25 25 26 27 28 29 30
28 29 29 27 26 25 25 24 24 23 23 22 21 21 21 20 19 19 19 20 20 20 20 20 20 21 21 21 22 22 23 24 24 25 27 28 29 29
29 29 28 27 26 25 25 25 24 23 23 22 22 21 21 21 21 21 20 20 20 20 20 19 19 20 20 20 21 22 22 22 23 24 25 26 27 28
29 29 28 27 26 26 26 26 25 24 23 23 22 21 21 21 21 21 20 20 19 19 19 18 18 18 19 19 20 20 21 21 21 22 22 23 24 25
30 29 28 28 27 27 26 27 26 25 24 23 23 22 22 20 20 20 20 19 19 19 18 17 17 17 17 18 18 19 20 20 20 20 21 22 22 23
Wind_Direction
289 286 286 286 284 281 279 277 274 273 271 270 269 269 268 265 262 260 258 257 256 254 253 251 250 249 248 246 245 245 244 244 244 244 243 242 242 242
293 291 288 287 285 282 282 280 278 277 274 270 269 268 267 266 264 261 260 257 257 256 254 254 253 251 248 248 247 246 244 244 244 243 243 243 242 241
293 291 290 287 286 284 284 283 281 279 276 272 270 267 266 265 263 262 260 259 258 258 258 256 254 252 251 250 248 247 246 245 244 244 243 243 242 241
296 294 293 291 289 286 285 284 283 281 278 274 270 269 266 265 263 262 260 261 260 260 258 257 256 253 252 251 250 248 247 245 244 244 243 243 242 240
299 298 296 293 292 288 285 284 283 283 280 278 272 269 267 266 265 263 262 261 261 260 259 258 256 254 253 252 250 249 248 246 244 243 243 242 241 240
305 303 301 297 294 291 289 285 285 285 282 278 274 270 268 267 267 265 265 263 262 261 260 259 257 255 254 252 250 249 248 246 245 244 242 240 240 240
310 307 305 301 296 294 292 289 287 285 282 278 274 271 271 270 271 268 267 265 263 262 260 258 257 256 255 253 250 249 248 247 244 242 241 240 239 239
314 311 307 304 298 294 294 294 291 287 283 280 277 275 275 275 275 273 270 268 267 263 260 259 258 256 254 252 250 249 248 247 245 242 240 239 238 238
319 315 311 307 303 300 299 297 294 291 288 285 281 279 277 275 275 274 272 272 269 267 263 261 260 258 255 252 251 249 248 248 246 244 241 238 237 237
325 320 316 313 311 308 304 301 296 293 290 288 287 284 282 279 277 275 273 272 268 266 264 261 260 259 257 254 252 251 250 248 248 245 241 238 237 238
327 325 323 320 316 313 310 307 302 298 296 293 289 286 284 281 278 277 277 273 269 266 264 262 259 258 256 255 253 251 250 249 248 246 243 240 239 240
328 327 326 322 317 315 314 311 307 302 298 296 292 290 287 284 281 280 280 275 271 267 265 263 260 257 256 255 254 253 251 249 248 245 243 242 241 241
328 326 324 324 320 317 315 312 307 304 301 299 295 293 291 289 286 282 280 277 273 269 266 264 262 259 256 254 255 254 252 249 248 245 243 241 241 241
328 325 323 323 322 318 315 312 310 307 303 300 296 295 294 292 290 287 283 279 276 272 269 266 264 262 259 256 254 255 253 250 247 245 244 242 240 241
328 325 322 323 323 319 315 314 312 309 306 302 299 297 296 294 292 289 286 282 279 275 272 269 267 264 261 259 257 254 252 251 249 247 245 243 243 243
330 328 326 325 323 322 319 317 315 311 310 307 303 302 300 296 293 290 286 283 280 277 274 272 269 266 263 261 260 256 253 251 249 247 245 244 243 244
333 332 330 328 327 324 322 321 320 318 314 310 309 308 305 299 295 292 289 286 282 279 277 274 271 269 266 265 263 260 256 253 251 249 247 246 244 244
337 336 334 331 329 326 324 324 322 320 318 316 313 310 307 302 298 295 292 290 287 283 281 278 273 269 268 266 264 261 257 255 254 252 250 248 246 244
339 337 335 333 332 329 327 326 324 322 320 318 315 312 310 306 300 296 292 290 289 287 283 280 275 271 268 265 263 262 259 257 255 252 251 250 247 246
340 339 339 337 337 334 332 330 329 326 323 321 318 315 313 310 307 301 297 294 292 289 286 282 277 273 270 267 264 262 260 258 255 253 252 250 248 247
344 344 343 341 339 338 337 334 332 330 327 324 321 318 315 313 310 307 302 299 295 291 288 284 279 275 272 269 267 263 260 259 257 255 253 251 248 246
348 347 345 343 342 341 340 338 335 332 330 328 326 323 321 318 314 310 305 302 299 293 289 287 285 281 277 273 269 266 262 258 257 256 253 251 249 246
350 349 347 345 344 343 341 340 338 335 332 330 327 325 324 322 318 313 309 306 303 299 295 292 289 286 280 274 270 266 263 260 258 255 253 251 250 248
Height
5711 5708 5706 5704 5702 5701 5699 5698 5698 5696 5696 5695 5694 5693 5693 5693 5693 5693 5694 5695 5695 5696 5697 5698 5700 5701 5703 5705 5708 5710 5713 5716 5719 5723 5726 5729 5732 5736
5703 5701 5698 5696 5694 5692 5690 5689 5688 5687 5686 5685 5684 5684 5684 5683 5683 5684 5684 5685 5686 5686 5687 5688 5689 5690 5692 5694 5696 5699 5702 5705 5708 5712 5715 5718 5722 5725
5696 5693 5690 5688 5686 5684 5682 5680 5679 5678 5677 5676 5675 5674 5674 5674 5674 5674 5675 5675 5676 5676 5677 5677 5678 5680 5681 5683 5685 5688 5691 5694 5697 5700 5703 5707 5711 5715
5688 5685 5683 5680 5678 5676 5674 5672 5670 5669 5668 5667 5666 5666 5665 5665 5665 5665 5666 5666 5666 5667 5667 5667 5668 5669 5670 5672 5674 5676 5679 5682 5685 5689 5692 5696 5699 5703
5681 5678 5675 5673 5670 5668 5666 5664 5663 5661 5660 5659 5658 5657 5657 5656 5656 5656 5656 5656 5656 5657 5657 5657 5658 5659 5660 5661 5663 5665 5668 5671 5674 5677 5680 5684 5687 5691
5675 5672 5669 5666 5663 5661 5659 5657 5655 5654 5652 5651 5650 5649 5649 5648 5647 5647 5647 5647 5647 5647 5647 5647 5648 5649 5650 5651 5653 5655 5657 5659 5662 5665 5668 5672 5676 5680
5670 5666 5663 5660 5657 5655 5652 5650 5648 5646 5645 5643 5642 5642 5641 5640 5639 5639 5639 5638 5638 5637 5637 5638 5639 5639 5640 5641 5642 5644 5646 5648 5650 5653 5657 5661 5665 5668
5664 5661 5657 5654 5651 5649 5646 5644 5641 5639 5637 5636 5635 5634 5633 5632 5631 5630 5630 5630 5629 5629 5628 5629 5629 5630 5630 5631 5633 5634 5636 5638 5640 5643 5646 5650 5654 5658
5660 5656 5652 5649 5646 5643 5640 5637 5635 5632 5630 5629 5628 5626 5625 5624 5624 5623 5621 5621 5620 5619 5619 5620 5620 5621 5621 5622 5623 5625 5626 5628 5630 5632 5635 5639 5643 5647
5655 5651 5647 5644 5640 5637 5634 5631 5629 5626 5624 5622 5620 5619 5617 5616 5615 5614 5613 5612 5612 5611 5610 5611 5611 5612 5612 5613 5614 5615 5617 5618 5620 5623 5625 5629 5633 5637
5651 5647 5643 5639 5636 5632 5629 5625 5623 5620 5617 5615 5613 5611 5610 5608 5607 5606 5605 5604 5603 5602 5602 5602 5603 5603 5604 5605 5605 5606 5608 5609 5611 5613 5616 5619 5623 5626
5648 5643 5639 5634 5631 5627 5623 5620 5617 5614 5611 5609 5607 5604 5603 5601 5599 5598 5596 5596 5595 5595 5594 5593 5594 5594 5596 5596 5596 5597 5598 5600 5601 5603 5606 5609 5612 5616
5644 5639 5635 5630 5626 5622 5618 5615 5611 5608 5606 5603 5600 5598 5596 5593 5592 5590 5589 5588 5587 5587 5586 5585 5585 5586 5587 5588 5588 5589 5589 5591 5592 5594 5597 5600 5603 5606
5639 5635 5630 5626 5621 5617 5613 5609 5606 5603 5599 5596 5594 5591 5589 5587 5585 5583 5581 5580 5579 5578 5578 5577 5577 5577 5578 5579 5579 5580 5581 5582 5584 5585 5588 5590 5593 5596
5635 5630 5625 5621 5616 5612 5607 5603 5600 5596 5593 5590 5587 5584 5582 5580 5577 5575 5574 5572 5571 5570 5570 5569 5569 5569 5569 5570 5571 5572 5573 5574 5575 5577 5579 5581 5584 5587
5630 5625 5620 5615 5611 5606 5602 5598 5594 5590 5586 5583 5580 5577 5575 5572 5570 5568 5566 5565 5564 5563 5562 5561 5561 5561 5561 5562 5562 5563 5564 5565 5566 5568 5570 5572 5574 5577
5626 5620 5615 5611 5606 5601 5596 5592 5588 5584 5580 5577 5573 5571 5568 5565 5562 5560 5558 5557 5556 5555 5554 5553 5553 5553 5553 5553 5554 5554 5555 5556 5557 5558 5561 5563 5565 5568
5622 5616 5611 5605 5600 5596 5591 5587 5582 5578 5574 5571 5567 5564 5561 5558 5556 5554 5552 5550 5549 5548 5547 5546 5545 5545 5545 5545 5545 5546 5546 5547 5548 5549 5551 5554 5556 5558
5618 5612 5606 5600 5595 5590 5585 5581 5577 5573 5569 5565 5561 5558 5555 5552 5550 5547 5545 5543 5542 5540 5539 5538 5537 5537 5537 5537 5537 5537 5538 5539 5540 5541 5542 5544 5546 5549
5615 5608 5602 5596 5590 5585 5580 5576 5572 5567 5563 5559 5556 5552 5549 5546 5543 5541 5539 5537 5535 5533 5532 5531 5530 5529 5529 5529 5529 5529 5529 5530 5531 5532 5533 5535 5537 5540
5612 5605 5599 5593 5587 5582 5577 5572 5567 5563 5558 5554 5551 5547 5544 5540 5537 5535 5532 5530 5528 5526 5525 5524 5522 5522 5521 5521 5521 5521 5522 5522 5523 5524 5525 5526 5528 5531
5609 5603 5596 5590 5584 5579 5573 5568 5563 5558 5554 5549 5545 5542 5538 5535 5532 5529 5526 5524 5521 5520 5518 5517 5515 5514 5514 5513 5513 5514 5514 5515 5515 5516 5517 5518 5520 5522
5607 5601 5594 5588 5582 5576 5571 5565 5560 5555 5550 5545 5541 5537 5533 5529 5526 5523 5520 5518 5516 5514 5512 5511 5509 5508 5507 5507 5506 5507 5507 5508 5508 5509 5510 5511 5512 5514